INTELSAT 10 (IS-10) (26766 NORAD) Tracking and Keplerian Element Data

This shows tracking and keplerian element data for the satellite.

Feedback or suggestion? Click here.




ElementValue
Catalog26766
NameINTELSAT 10 (IS-10)
Epoch Orbit6444
Epoch Day349.46710885
Epoch Year2018
RAAN82.3808
Inclination2.6756
Eccentricity0.0003197
Argument of Perigee174.0531
Mean Anonmoly43.2929
Mean Motion1.00273297
Decay Rate1.37E-06
L11 26766U 01019A 18349.46710885 .00000137 00000-0 00000+0 0 9992
L22 26766 2.6756 82.3808 0003197 174.0531 43.2929 1.00273297 64443

Live tracking and technical data element details for INTELSAT 10 (IS-10) (NORAD 26766). INTELSAT 10 (IS-10) can be tracked NOW for your location showing map with azimuth and elevation plus other details from your city location.

Track the satellite on the map from your city or location and see movement details for azimuth, elevation, latitude, longitude, range, height, and movement on the map or in text.







IsCatalogInMostPopularTable: catalog: 26766, numindb: 50
Update: records affected: 1



GetName: 26766 INTELSAT 10 (IS-10)

Hit Count: updated at: Sun, 16 Dec 2018 10:32:41 GMT